Tillbaka till svenska Fidonet
English   Information   Debug  
FILM   0/18
FNEWS_PUBLISH   4926
FN_SYSOP   42201
FN_SYSOP_OLD1   71952
FTP_FIDO   0/2
FTSC_PUBLIC   0/13973
FUNNY   0/4886
GENEALOGY.EUR   0/71
GET_INFO   105
GOLDED   0/408
HAM   4914/16661
HOLYSMOKE   0/6791
HOT_SITES   0/1
HTMLEDIT   0/71
HUB203   466
HUB_100   264
HUB_400   39
HUMOR   0/29
IC   0/2851
INTERNET   0/424
INTERUSER   0/3
IP_CONNECT   719
JAMNNTPD   0/233
JAMTLAND   0/47
KATTY_KORNER   0/41
LAN   0/16
LINUX-USER   0/19
LINUXHELP   0/1155
LINUX   0/22300
LINUX_BBS   0/957
mail   18.68
mail_fore_ok   249
MENSA   0/341
MODERATOR   0/102
MONTE   0/992
MOSCOW_OKLAHOMA   0/1245
MUFFIN   0/783
MUSIC   0/321
N203_STAT   938
N203_SYSCHAT   313
NET203   321
NET204   69
NET_DEV   0/10
NORD.ADMIN   0/101
NORD.CHAT   0/2572
NORD.FIDONET   189
NORD.HARDWARE   0/28
NORD.KULTUR   0/114
NORD.PROG   0/32
NORD.SOFTWARE   0/88
NORD.TEKNIK   0/58
NORD   0/453
OCCULT_CHAT   0/93
OS2BBS   0/787
OS2DOSBBS   0/580
OS2HW   0/42
OS2INET   0/37
OS2LAN   0/134
OS2PROG   0/36
OS2REXX   0/113
OS2USER-L   207
OS2   0/4830
OSDEBATE   0/18996
PASCAL   0/490
PERL   0/457
PHP   0/45
POINTS   0/405
POLITICS   0/29554
POL_INC   0/14731
PSION   103
R20_ADMIN   1133
R20_AMATORRADIO   0/2
R20_BEST_OF_FIDONET   16
R20_CHAT   0/896
R20_DEPP   0/3
R20_DEV   400
R20_ECHO2   1833
R20_ECHOPRES   0/35
R20_ESTAT   0/719
R20_FIDONETPROG...
...RAM.MYPOINT
  0/2
R20_FIDONETPROGRAM   0/22
R20_FIDONET   0/248
R20_FILEFIND   0/24
R20_FILEFOUND   0/22
R20_HIFI   0/3
R20_INFO2   3725
R20_INTERNET   0/12940
R20_INTRESSE   0/60
R20_INTR_KOM   0/99
R20_KANDIDAT.CHAT   42
R20_KANDIDAT   28
R20_KOM_DEV   112
R20_KONTROLL   0/13360
R20_KORSET   0/18
R20_LOKALTRAFIK   0/24
R20_MODERATOR   0/1852
R20_NC   76
R20_NET200   245
R20_NETWORK.OTH...
...ERNETS
  0/13
R20_OPERATIVSYS...
...TEM.LINUX
  0/44
R20_PROGRAMVAROR   0/1
R20_REC2NEC   534
R20_SFOSM   0/341
R20_SF   0/108
R20_SPRAK.ENGLISH   0/1
R20_SQUISH   107
R20_TEST   2
R20_WORST_OF_FIDONET   20
RAR   0/9
RA_MULTI   106
RA_UTIL   0/162
REGCON.EUR   0/2068
REGCON   0/13
SCIENCE   0/1206
SF   0/239
SHAREWARE_SUPPORT   0/5146
SHAREWRE   0/14
SIMPSONS   0/169
STATS_OLD1   0/2539.065
STATS_OLD2   0/2530
STATS_OLD3   0/2395.095
STATS_OLD4   0/1692.25
SURVIVOR   0/495
SYSOPS_CORNER   0/3
SYSOP   0/84
TAGLINES   0/112
TEAMOS2   0/4530
TECH   0/2617
TEST.444   0/105
TRAPDOOR   0/19
TREK   0/755
TUB   0/290
UFO   0/40
UNIX   0/1316
USA_EURLINK   0/102
USR_MODEMS   0/1
VATICAN   0/2740
VIETNAM_VETS   0/14
VIRUS   0/378
VIRUS_INFO   0/201
VISUAL_BASIC   0/473
WHITEHOUSE   0/5187
WIN2000   0/101
WIN32   0/30
WIN95   0/4291
WIN95_OLD1   0/70272
WINDOWS   0/1517
WWB_SYSOP   0/419
WWB_TECH   0/810
ZCC-PUBLIC   0/1
ZEC   4

 
4DOS   0/134
ABORTION   0/7
ALASKA_CHAT   0/506
ALLFIX_FILE   0/1313
ALLFIX_FILE_OLD1   0/7997
ALT_DOS   0/152
AMATEUR_RADIO   0/1039
AMIGASALE   0/14
AMIGA   0/331
AMIGA_INT   0/1
AMIGA_PROG   0/20
AMIGA_SYSOP   0/26
ANIME   0/15
ARGUS   0/924
ASCII_ART   0/340
ASIAN_LINK   0/651
ASTRONOMY   0/417
AUDIO   0/92
AUTOMOBILE_RACING   0/105
BABYLON5   0/17862
BAG   135
BATPOWER   0/361
BBBS.ENGLISH   0/382
BBSLAW   0/109
BBS_ADS   0/5290
BBS_INTERNET   0/507
BIBLE   0/3563
BINKD   0/1119
BINKLEY   0/215
BLUEWAVE   0/2173
CABLE_MODEMS   0/25
CBM   0/46
CDRECORD   0/66
CDROM   0/20
CLASSIC_COMPUTER   0/378
COMICS   0/15
CONSPRCY   0/899
COOKING   41467
COOKING_OLD1   0/24719
COOKING_OLD2   0/40862
COOKING_OLD3   0/37489
COOKING_OLD4   0/35496
COOKING_OLD5   9370
C_ECHO   0/189
C_PLUSPLUS   0/31
DIRTY_DOZEN   0/201
DOORGAMES   0/2292
DOS_INTERNET   0/196
duplikat   6102
ECHOLIST   0/18295
EC_SUPPORT   0/318
ELECTRONICS   0/359
ELEKTRONIK.GER   1534
ENET.LINGUISTIC   0/13
ENET.POLITICS   0/4
ENET.SOFT   0/11701
ENET.SYSOP   34296
ENET.TALKS   0/32
ENGLISH_TUTOR   0/2000
EVOLUTION   0/1335
FDECHO   0/217
FDN_ANNOUNCE   0/7068
FIDONEWS   25062
FIDONEWS_OLD1   0/49742
FIDONEWS_OLD2   0/35949
FIDONEWS_OLD3   0/30874
FIDONEWS_OLD4   0/37224
FIDO_SYSOP   12922
FIDO_UTIL   0/180
FILEFIND   0/209
FILEGATE   0/212
Möte HAM, 16661 texter
 lista första sista föregående nästa
Text 2854, 773 rader
Skriven 2009-03-19 22:00:21 av Amsat List (1:323/120.0)
Ärende: [keps]  orb09078.amsa
=============================
[keps]  orb09078.amsa

Return-Path: <keps-bounces@amsat.org>
X-Rcpt: craig.healy@chowda.com
X-UIDL: 1237559015.2750

SB KEPS @ AMSAT  $ORB09078.O
Orbital Elements  09078.OSCAR

HR AMSAT ORBITAL ELEMENTS FOR OSCAR SATELLITES
FROM WA5QGD FORT WORTH,TX March 19, 2009
Send Subscribe/unsubscribe to KEPS at 
http://www.amsat.org/mailman/listinfo/keps
BID: ORB09078.O
TO ALL RADIO AMATEURS BT

Satellite: AO-07
Catalog number: 07530
Epoch time:      09078.46621041
Element set:     430
Inclination:      101.4361 deg
RA of node:       106.4097 deg
Eccentricity:    0.0012073
Arg of perigee:   084.6965 deg
Mean anomaly:     275.5486 deg
Mean motion:   12.53575530 rev/day
Decay rate:       -2.7e-07 rev/day^2
Epoch rev:           57147
Checksum:              289

Satellite: AO-10
Catalog number: 14129
Epoch time:      09078.38876633
Element set:     633
Inclination:      025.9678 deg
RA of node:       166.1397 deg
Eccentricity:    0.5982084
Arg of perigee:   207.0833 deg
Mean anomaly:     102.0602 deg
Mean motion:   02.05870136 rev/day
Decay rate:      -1.66e-06 rev/day^2
Epoch rev:           19377
Checksum:              321

Satellite: UO-11
Catalog number: 14781
Epoch time:      09078.68319606
Element set:     914
Inclination:      098.1178 deg
RA of node:       122.2941 deg
Eccentricity:    0.0008004
Arg of perigee:   267.0133 deg
Mean anomaly:     093.0181 deg
Mean motion:   14.79699665 rev/day
Decay rate:        3.1e-07 rev/day^2
Epoch rev:           34459
Checksum:              313

Satellite: RS-15
Catalog number: 23439
Epoch time:      09077.95783704
Element set:    0216
Inclination:      064.8131 deg
RA of node:       050.7225 deg
Eccentricity:    0.0146332
Arg of perigee:   069.0600 deg
Mean anomaly:     292.5909 deg
Mean motion:   11.27553296 rev/day
Decay rate:       -3.9e-07 rev/day^2
Epoch rev:           58594
Checksum:              318

Satellite: FO-29
Catalog number: 24278
Epoch time:      09077.70657082
Element set:    0006
Inclination:      098.5666 deg
RA of node:       323.8444 deg
Eccentricity:    0.0350051
Arg of perigee:   224.7058 deg
Mean anomaly:     132.5372 deg
Mean motion:   13.52942687 rev/day
Decay rate:        4.8e-07 rev/day^2
Epoch rev:           62151
Checksum:              316

Satellite: SO-33
Catalog number: 25509
Epoch time:      09077.67828858
Element set:    0412
Inclination:      031.4343 deg
RA of node:       204.2776 deg
Eccentricity:    0.0355404
Arg of perigee:   267.0898 deg
Mean anomaly:     088.8992 deg
Mean motion:   14.28245816 rev/day
Decay rate:       -6.2e-07 rev/day^2
Epoch rev:           54288
Checksum:              348

Satellite: AO-40
Catalog number: 26609
Epoch time:      09074.71118047
Element set:     202
Inclination:      008.9500 deg
RA of node:       028.2557 deg
Eccentricity:    0.7956187
Arg of perigee:   184.9526 deg
Mean anomaly:     154.0854 deg
Mean motion:   01.25584144 rev/day
Decay rate:      -2.70e-06 rev/day^2
Epoch rev:            3845
Checksum:              310

Satellite: RS-22
Catalog number: 27939
Epoch time:      09077.66468735
Element set:     742
Inclination:      097.9582 deg
RA of node:       315.7622 deg
Eccentricity:    0.0014664
Arg of perigee:   060.0521 deg
Mean anomaly:     300.2139 deg
Mean motion:   14.63301118 rev/day
Decay rate:       -3.0e-08 rev/day^2
Epoch rev:           29233
Checksum:              297

Satellite: VO-52
Catalog number: 28650
Epoch time:      09077.68498125
Element set:    0182
Inclination:      097.7508 deg
RA of node:       142.2189 deg
Eccentricity:    0.0026495
Arg of perigee:   327.3426 deg
Mean anomaly:     032.6171 deg
Mean motion:   14.81564318 rev/day
Decay rate:       4.21e-06 rev/day^2
Epoch rev:           20924
Checksum:              316

Satellite: PO-63
Catalog number: 29712
Epoch time:      09078.80469464
Element set:     325
Inclination:      097.8383 deg
RA of node:       137.3132 deg
Eccentricity:    0.0013617
Arg of perigee:   201.7564 deg
Mean anomaly:     158.3080 deg
Mean motion:   14.80475353 rev/day
Decay rate:       5.46e-06 rev/day^2
Epoch rev:           11824
Checksum:              312

/EX
SB KEPS @ AMSAT  $ORB09078.D
Orbital Elements  09078.MICROS

HR AMSAT ORBITAL ELEMENTS FOR THE MICROSATS
FROM WA5QGD FORT WORTH,TX March 19, 2009
Send Subscribe/unsubscribe to KEPS at 
http://www.amsat.org/mailman/listinfo/keps
BID: ORB09078.D
TO ALL RADIO AMATEURS BT

Satellite: AO-16
Catalog number: 20439
Epoch time:      09078.47639084
Element set:     560
Inclination:      098.2696 deg
RA of node:       051.0050 deg
Eccentricity:    0.0011908
Arg of perigee:   077.9788 deg
Mean anomaly:     282.2735 deg
Mean motion:   14.31818480 rev/day
Decay rate:       -8.0e-08 rev/day^2
Epoch rev:              31
Checksum:              309

Satellite: LO-19
Catalog number: 20442
Epoch time:      09077.77951700
Element set:     481
Inclination:      098.2333 deg
RA of node:       057.9485 deg
Eccentricity:    0.0012923
Arg of perigee:   076.2554 deg
Mean anomaly:     284.0036 deg
Mean motion:   14.32054590 rev/day
Decay rate:       -5.1e-07 rev/day^2
Epoch rev:              37
Checksum:              290

Satellite: AO-27
Catalog number: 22825
Epoch time:      09077.83767104
Element set:     201
Inclination:      098.4268 deg
RA of node:       034.1522 deg
Eccentricity:    0.0008350
Arg of perigee:   164.7041 deg
Mean anomaly:     195.4402 deg
Mean motion:   14.29260795 rev/day
Decay rate:        1.1e-07 rev/day^2
Epoch rev:           80700
Checksum:              281

